Regional Weather Roundup
Issued by NWS

Home | Current Version | Previous Version | Text Only | Print | Product List | Glossary Off
Versions: 1 2 3 4 5 6 7 8 9 10 11 12 13 14 15 16 17 18 19 20 21 22 23 24 25 26 27 28 29 30 31 32 33 34 35 36 37 38 39 40 41 42 43 44 45 46 47 48 49 50

000
ASUS43 KFSD 240110
RWRSD

WEATHER ROUNDUP FOR SOUTH DAKOTA
NATIONAL WEATHER SERVICE SIOUX FALLS SD
800 PM CDT THU OCT 23 2014

NOTE: "FAIR" INDICATES FEW OR NO CLOUDS BELOW 12,000 FEET WITH NO
SIGNIFICANT WEATHER AND/OR OBSTRUCTIONS TO VISIBILITY.


SDZ001>005-009-010-012>017-240200-
NORTHWEST AND NORTH CENTRAL SOUTH DAKOTA

CITY           SKY/WX    TMP DP  RH WIND       PRES   REMARKS
BUFFALO          N/A     54  28  36 W6        29.83R
FAITH            N/A     56  32  40 W5        29.89R
MOBRIDGE       CLOUDY    56  40  55 CALM      29.85R
$$

SDZ012>016-024>037-041>051-057-063-072>074-240200-
SOUTHWEST AND SOUTH CENTRAL SOUTH DAKOTA

CITY           SKY/WX    TMP DP  RH WIND       PRES   REMARKS
RAPID CTY ARPT MOCLDY    47  36  65 N7        29.92R
PIERRE         MOCLDY    49  36  61 NE6       29.85S
CUSTER         MOCLDY    50  26  39 NW5       30.02R
ELLSWORTH AFB  MOCLDY    49  35  57 W6        29.92R
PHILIP         MOCLDY    51  34  52 CALM      29.86R
PINE RIDGE     PTCLDY    49  37  63 CALM      29.93R
SPEARFISH      FAIR      50  36  57 S12       29.95S
WINNER         FAIR      59  34  39 S6        29.88S
$$

SDZ004>011-016>023-039-040-240200-
NORTHEAST SOUTH DAKOTA

CITY           SKY/WX    TMP DP  RH WIND       PRES   REMARKS
ABERDEEN       MOCLDY    52  42  69 S7        29.88R
WATERTOWN      CLEAR     55  44  66 S6        29.91F
SISSETON         N/A     53  40  61 SW9       29.88S
$$

SDZ017-020-022-023-036>040-048>070-240200-
SOUTHEAST SOUTH DAKOTA

CITY           SKY/WX    TMP DP  RH WIND       PRES   REMARKS
SIOUX FALLS    PTCLDY    58  46  64 S8        29.95S
HURON          MOCLDY    55  43  63 SE6       29.89S
CHAMBERLAIN    MOCLDY    52  41  64 SE5       29.88S
MITCHELL       MOCLDY    58  44  60 S10       29.90S
YANKTON        CLEAR     61  46  59 S8        29.94F
$$

ABBREVIATIONS USED IN REMARKS
   TC - TEMPERATURE IN CELSIUS
  WCI - WIND CHILL INDEX
   HX - HEAT INDEX
  VSB - VISIBILITY




USA.gov is the U.S. government's official web portal to all federal, state and local government web resources and services.